Time,TemperatureF,DewpointF,PressureIn,WindDirection,WindDirectionDegrees,WindSpeedMPH,WindSpeedGustMPH,Humidity,HourlyPrecipIn,Conditions,Clouds,dailyrainin,SoftwareType,DateUTC
2013-09-01 00:03:00,71.2,68.4,29.82,SE,146,0.0,3.0,91,0.00,,,0.72,Wunderground v.1.15,2013-09-01 05:03:00,
2013-09-01 00:08:00,71.0,68.6,29.82,ESE,111,0.0,5.0,92,0.00,,,0.72,Wunderground v.1.15,2013-09-01 05:08:00,
2013-09-01 00:13:00,70.8,68.7,29.82,SE,139,0.0,5.0,93,0.00,,,0.72,Wunderground v.1.15,2013-09-01 05:13:00,
2013-09-01 00:18:00,70.7,68.6,29.81,SE,137,2.0,5.0,93,0.00,,,0.72,Wunderground v.1.15,2013-09-01 05:18:00,
2013-09-01 00:23:00,70.5,68.4,29.81,ESE,117,2.0,3.0,93,0.00,,,0.72,Wunderground v.1.15,2013-09-01 05:23:00,
2013-09-01 00:28:00,70.4,68.6,29.81,ESE,120,3.0,5.0,94,0.00,,,0.72,Wunderground v.1.15,2013-09-01 05:28:00,
2013-09-01 00:33:00,70.4,68.6,29.81,ESE,123,0.0,2.0,94,0.00,,,0.72,Wunderground v.1.15,2013-09-01 05:33:00,
2013-09-01 00:38:00,70.3,68.5,29.81,SE,131,2.0,5.0,94,0.00,,,0.72,Wunderground v.1.15,2013-09-01 05:38:00,
2013-09-01 00:43:00,70.3,68.8,29.81,SSE,159,4.0,7.0,95,0.00,,,0.72,Wunderground v.1.15,2013-09-01 05:43:00,
2013-09-01 00:48:00,70.2,68.7,29.80,SE,144,6.0,7.0,95,0.00,,,0.72,Wunderground v.1.15,2013-09-01 05:48:00,
2013-09-01 00:53:00,70.2,68.7,29.81,SSW,208,3.0,6.0,95,0.00,,,0.72,Wunderground v.1.15,2013-09-01 05:53:00,
2013-09-01 00:58:00,70.2,68.7,29.80,SE,140,6.0,6.0,95,0.00,,,0.72,Wunderground v.1.15,2013-09-01 05:58:00,
2013-09-01 01:03:00,70.1,68.6,29.80,SE,132,5.0,7.0,95,0.00,,,0.72,Wunderground v.1.15,2013-09-01 06:03:00,
2013-09-01 01:08:00,70.1,68.6,29.80,SE,130,5.0,8.0,95,0.00,,,0.72,Wunderground v.1.15,2013-09-01 06:08:00,
2013-09-01 01:13:00,70.2,69.0,29.81,SE,128,3.0,7.0,96,0.00,,,0.72,Wunderground v.1.15,2013-09-01 06:13:00,
2013-09-01 01:18:00,70.2,68.7,29.80,SE,124,2.0,7.0,95,0.00,,,0.72,Wunderground v.1.15,2013-09-01 06:18:00,
2013-09-01 01:23:00,70.3,68.8,29.80,SE,128,3.0,4.0,95,0.00,,,0.72,Wunderground v.1.15,2013-09-01 06:23:00,
2013-09-01 01:28:00,70.4,68.9,29.80,SSW,199,2.0,5.0,95,0.00,,,0.72,Wunderground v.1.15,2013-09-01 06:28:00,
2013-09-01 01:33:00,70.8,69.3,29.81,SW,234,3.0,5.0,95,0.00,,,0.72,Wunderground v.1.15,2013-09-01 06:33:00,
2013-09-01 01:38:00,71.1,69.6,29.81,SW,223,1.0,5.0,95,0.00,,,0.72,Wunderground v.1.15,2013-09-01 06:38:00,
2013-09-01 01:43:00,71.3,69.5,29.81,SW,220,3.0,3.0,94,0.00,,,0.72,Wunderground v.1.15,2013-09-01 06:43:00,
2013-09-01 01:48:00,71.5,69.7,29.81,SW,236,0.0,4.0,94,0.00,,,0.72,Wunderground v.1.15,2013-09-01 06:48:00,
2013-09-01 01:53:00,71.5,69.7,29.80,SW,227,0.0,2.0,94,0.00,,,0.72,Wunderground v.1.15,2013-09-01 06:53:00,
2013-09-01 01:58:00,71.4,69.6,29.81,SW,231,2.0,4.0,94,0.00,,,0.72,Wunderground v.1.15,2013-09-01 06:58:00,
2013-09-01 02:04:00,71.6,69.5,29.81,SW,230,2.0,4.0,93,0.00,,,0.00,Wunderground v.1.15,2013-09-01 07:04:00,
2013-09-01 02:09:00,71.7,69.6,29.81,SW,230,2.0,4.0,93,0.00,,,0.00,Wunderground v.1.15,2013-09-01 07:09:00,
2013-09-01 02:14:00,71.8,69.7,29.81,SW,232,2.0,3.0,93,0.00,,,0.00,Wunderground v.1.15,2013-09-01 07:14:00,
2013-09-01 02:20:00,71.9,69.4,29.81,SSW,196,0.0,2.0,92,0.00,,,0.00,Wunderground v.1.15,2013-09-01 07:20:00,
2013-09-01 02:25:00,71.8,69.3,29.81,SSW,211,2.0,2.0,92,0.00,,,0.00,Wunderground v.1.15,2013-09-01 07:25:00,
2013-09-01 02:31:00,71.7,69.3,29.81,SSW,205,1.0,3.0,92,0.00,,,0.00,Wunderground v.1.15,2013-09-01 07:31:00,
2013-09-01 02:36:00,71.7,69.3,29.81,South,184,3.0,5.0,92,0.00,,,0.00,Wunderground v.1.15,2013-09-01 07:36:00,
2013-09-01 02:42:00,72.0,69.5,29.80,SSE,155,5.0,5.0,92,0.00,,,0.00,Wunderground v.1.15,2013-09-01 07:42:00,
2013-09-01 02:47:00,72.5,69.7,29.81,SSE,157,7.0,7.0,91,0.00,,,0.00,Wunderground v.1.15,2013-09-01 07:47:00,
2013-09-01 02:53:00,72.6,69.5,29.81,ESE,113,4.0,4.0,90,0.00,,,0.00,Wunderground v.1.15,2013-09-01 07:53:00,
2013-09-01 02:58:00,72.4,69.3,29.81,ESE,117,2.0,4.0,90,0.00,,,0.00,Wunderground v.1.15,2013-09-01 07:58:00,
2013-09-01 03:04:00,72.0,69.2,29.81,ESE,122,1.0,2.0,91,0.00,,,0.00,Wunderground v.1.15,2013-09-01 08:04:00,
2013-09-01 03:10:00,71.4,69.0,29.81,SE,136,5.0,5.0,92,0.00,,,0.00,Wunderground v.1.15,2013-09-01 08:10:00,
2013-09-01 03:16:00,71.1,69.0,29.80,SW,223,5.0,5.0,93,0.00,,,0.00,Wunderground v.1.15,2013-09-01 08:16:00,
2013-09-01 03:21:00,70.9,69.1,29.80,SE,126,5.0,5.0,94,0.00,,,0.00,Wunderground v.1.15,2013-09-01 08:21:00,
2013-09-01 03:26:00,70.7,68.9,29.80,SSE,160,4.0,6.0,94,0.00,,,0.00,Wunderground v.1.15,2013-09-01 08:26:00,
2013-09-01 03:32:00,70.7,68.9,29.80,SSW,197,1.0,4.0,94,0.00,,,0.00,Wunderground v.1.15,2013-09-01 08:32:00,
2013-09-01 03:38:00,71.1,69.3,29.80,SSE,165,3.0,4.0,94,0.00,,,0.00,Wunderground v.1.15,2013-09-01 08:38:00,
2013-09-01 03:43:00,71.2,69.1,29.80,SE,140,5.0,5.0,93,0.00,,,0.00,Wunderground v.1.15,2013-09-01 08:43:00,
2013-09-01 03:49:00,70.8,68.7,29.79,SE,140,3.0,6.0,93,0.00,,,0.00,Wunderground v.1.15,2013-09-01 08:49:00,
2013-09-01 03:54:00,70.5,68.7,29.79,SE,127,4.0,5.0,94,0.00,,,0.00,Wunderground v.1.15,2013-09-01 08:54:00,
2013-09-01 04:00:00,70.3,68.5,29.80,SW,232,3.0,3.0,94,0.00,,,0.00,Wunderground v.1.15,2013-09-01 09:00:00,
2013-09-01 04:05:00,70.8,69.0,29.80,SW,227,0.0,7.0,94,0.00,,,0.00,Wunderground v.1.15,2013-09-01 09:05:00,
2013-09-01 04:10:00,71.2,69.1,29.80,SSW,200,3.0,4.0,93,0.00,,,0.00,Wunderground v.1.15,2013-09-01 09:10:00,
2013-09-01 04:15:00,71.3,69.2,29.79,SE,130,4.0,6.0,93,0.00,,,0.00,Wunderground v.1.15,2013-09-01 09:15:00,
2013-09-01 04:20:00,70.9,68.8,29.78,SSE,159,6.0,7.0,93,0.00,,,0.00,Wunderground v.1.15,2013-09-01 09:20:00,
2013-09-01 04:25:00,70.6,68.5,29.78,SSE,167,6.0,8.0,93,0.00,,,0.00,Wunderground v.1.15,2013-09-01 09:25:00,
2013-09-01 04:30:00,70.4,68.6,29.78,South,182,2.0,5.0,94,0.00,,,0.00,Wunderground v.1.15,2013-09-01 09:30:00,
2013-09-01 04:35:00,70.3,68.5,29.78,SE,137,4.0,6.0,94,0.00,,,0.00,Wunderground v.1.15,2013-09-01 09:35:00,
2013-09-01 04:40:00,70.1,68.3,29.78,South,190,1.0,3.0,94,0.00,,,0.00,Wunderground v.1.15,2013-09-01 09:40:00,
2013-09-01 04:45:00,70.3,68.8,29.78,SSW,209,3.0,7.0,95,0.00,,,0.00,Wunderground v.1.15,2013-09-01 09:45:00,
2013-09-01 04:50:00,70.9,69.1,29.78,SSW,199,3.0,4.0,94,0.00,,,0.00,Wunderground v.1.15,2013-09-01 09:50:00,
2013-09-01 04:55:00,71.1,69.0,29.78,WSW,238,4.0,6.0,93,0.00,,,0.00,Wunderground v.1.15,2013-09-01 09:55:00,
2013-09-01 05:00:00,71.2,69.1,29.78,SW,218,9.0,9.0,93,0.00,,,0.00,Wunderground v.1.15,2013-09-01 10:00:00,
2013-09-01 05:05:00,71.7,69.6,29.78,WSW,237,5.0,10.0,93,0.00,,,0.00,Wunderground v.1.15,2013-09-01 10:05:00,
2013-09-01 05:10:00,72.0,69.5,29.78,SW,235,6.0,8.0,92,0.00,,,0.00,Wunderground v.1.15,2013-09-01 10:10:00,
2013-09-01 05:15:00,71.9,69.4,29.79,NW,309,2.0,10.0,92,0.00,,,0.00,Wunderground v.1.15,2013-09-01 10:15:00,
2013-09-01 05:20:00,71.3,68.9,29.79,West,259,0.0,3.0,92,0.00,,,0.00,Wunderground v.1.15,2013-09-01 10:20:00,
2013-09-01 05:25:00,70.9,69.1,29.79,SW,221,6.0,10.0,94,0.00,,,0.00,Wunderground v.1.15,2013-09-01 10:25:00,
2013-09-01 05:30:00,70.7,68.9,29.80,SW,232,7.0,7.0,94,0.00,,,0.00,Wunderground v.1.15,2013-09-01 10:30:00,
2013-09-01 05:35:00,70.6,69.1,29.80,WSW,254,9.0,10.0,95,0.00,,,0.00,Wunderground v.1.15,2013-09-01 10:35:00,
2013-09-01 05:40:00,70.4,68.9,29.80,South,171,4.0,7.0,95,0.00,,,0.00,Wunderground v.1.15,2013-09-01 10:40:00,
2013-09-01 05:45:00,70.4,68.9,29.80,South,177,8.0,10.0,95,0.00,,,0.00,Wunderground v.1.15,2013-09-01 10:45:00,
2013-09-01 05:50:00,70.5,69.0,29.80,SSW,194,4.0,5.0,95,0.00,,,0.00,Wunderground v.1.15,2013-09-01 10:50:00,
2013-09-01 05:55:00,70.6,69.1,29.80,South,186,5.0,10.0,95,0.00,,,0.00,Wunderground v.1.15,2013-09-01 10:55:00,
2013-09-01 06:00:00,70.8,69.0,29.80,South,171,3.0,7.0,94,0.00,,,0.00,Wunderground v.1.15,2013-09-01 11:00:00,
2013-09-01 06:05:00,70.9,68.8,29.80,SE,140,4.0,11.0,93,0.00,,,0.00,Wunderground v.1.15,2013-09-01 11:05:00,
2013-09-01 06:10:00,71.1,69.0,29.80,SE,139,3.0,5.0,93,0.00,,,0.00,Wunderground v.1.15,2013-09-01 11:10:00,
2013-09-01 06:15:00,71.1,68.7,29.81,SSW,194,5.0,11.0,92,0.00,,,0.00,Wunderground v.1.15,2013-09-01 11:15:00,
2013-09-01 06:20:00,71.0,68.9,29.80,SW,236,3.0,4.0,93,0.00,,,0.00,Wunderground v.1.15,2013-09-01 11:20:00,
2013-09-01 06:25:00,71.0,68.9,29.81,West,273,8.0,14.0,93,0.00,,,0.00,Wunderground v.1.15,2013-09-01 11:25:00,
2013-09-01 06:31:00,71.0,68.9,29.81,WSW,255,5.0,5.0,93,0.00,,,0.00,Wunderground v.1.15,2013-09-01 11:31:00,
2013-09-01 06:36:00,70.6,68.8,29.81,South,172,6.0,9.0,94,0.00,,,0.00,Wunderground v.1.15,2013-09-01 11:36:00,
2013-09-01 06:41:00,70.4,68.6,29.81,SSE,163,3.0,9.0,94,0.00,,,0.00,Wunderground v.1.15,2013-09-01 11:41:00,
2013-09-01 06:46:00,70.4,67.6,29.81,SSE,165,2.0,12.0,91,0.00,,,0.00,Wunderground v.1.15,2013-09-01 11:46:00,
2013-09-01 06:51:00,71.0,67.3,29.81,SSW,192,7.0,7.0,88,0.00,,,0.00,Wunderground v.1.15,2013-09-01 11:51:00,
2013-09-01 06:56:00,71.4,67.3,29.81,SW,232,4.0,9.0,87,0.00,,,0.00,Wunderground v.1.15,2013-09-01 11:56:00,
2013-09-01 07:01:00,72.2,67.8,29.82,WSW,244,7.0,11.0,86,0.00,,,0.00,Wunderground v.1.15,2013-09-01 12:01:00,
2013-09-01 07:06:00,72.0,68.6,29.82,SSW,197,4.0,11.0,89,0.00,,,0.00,Wunderground v.1.15,2013-09-01 12:06:00,
2013-09-01 07:11:00,71.7,68.6,29.81,SW,217,11.0,14.0,90,0.00,,,0.00,Wunderground v.1.15,2013-09-01 12:11:00,
2013-09-01 07:16:00,71.6,68.8,29.81,SW,232,9.0,14.0,91,0.00,,,0.00,Wunderground v.1.15,2013-09-01 12:16:00,
2013-09-01 07:21:00,71.5,69.1,29.82,NW,318,3.0,9.0,92,0.00,,,0.00,Wunderground v.1.15,2013-09-01 12:21:00,
2013-09-01 07:26:00,71.2,69.1,29.82,WSW,252,6.0,9.0,93,0.00,,,0.00,Wunderground v.1.15,2013-09-01 12:26:00,
2013-09-01 07:31:00,70.6,68.8,29.83,WSW,252,7.0,11.0,94,0.00,,,0.00,Wunderground v.1.15,2013-09-01 12:31:00,
2013-09-01 07:36:00,70.2,68.7,29.83,West,265,6.0,11.0,95,0.00,,,0.00,Wunderground v.1.15,2013-09-01 12:36:00,
2013-09-01 07:41:00,70.1,68.6,29.83,WSW,244,9.0,11.0,95,0.00,,,0.00,Wunderground v.1.15,2013-09-01 12:41:00,
2013-09-01 07:46:00,70.3,68.8,29.83,West,267,6.0,13.0,95,0.00,,,0.00,Wunderground v.1.15,2013-09-01 12:46:00,
2013-09-01 07:51:00,70.1,68.6,29.83,West,275,6.0,8.0,95,0.00,,,0.00,Wunderground v.1.15,2013-09-01 12:51:00,
2013-09-01 07:56:00,70.0,68.5,29.83,SW,234,11.0,14.0,95,0.00,,,0.00,Wunderground v.1.15,2013-09-01 12:56:00,
2013-09-01 08:01:00,70.3,68.8,29.83,SW,225,8.0,10.0,95,0.00,,,0.00,Wunderground v.1.15,2013-09-01 13:01:00,
2013-09-01 08:06:00,70.4,68.9,29.83,SW,235,6.0,11.0,95,0.00,,,0.00,Wunderground v.1.15,2013-09-01 13:06:00,
2013-09-01 08:11:00,70.6,68.8,29.83,SW,235,7.0,12.0,94,0.00,,,0.00,Wunderground v.1.15,2013-09-01 13:11:00,
2013-09-01 08:16:00,70.7,68.9,29.84,SW,217,6.0,12.0,94,0.00,,,0.00,Wunderground v.1.15,2013-09-01 13:16:00,
2013-09-01 08:22:00,70.6,68.8,29.84,NW,313,2.0,8.0,94,0.00,,,0.00,Wunderground v.1.15,2013-09-01 13:22:00,
2013-09-01 08:27:00,70.3,68.8,29.84,WNW,288,4.0,8.0,95,0.00,,,0.00,Wunderground v.1.15,2013-09-01 13:27:00,
2013-09-01 08:32:00,69.9,68.4,29.84,WNW,303,5.0,6.0,95,0.00,,,0.00,Wunderground v.1.15,2013-09-01 13:32:00,
2013-09-01 08:37:00,69.3,67.8,29.85,WSW,244,4.0,8.0,95,0.00,,,0.00,Wunderground v.1.15,2013-09-01 13:37:00,
2013-09-01 08:42:00,69.1,67.9,29.84,SW,222,5.0,9.0,96,0.00,,,0.00,Wunderground v.1.15,2013-09-01 13:42:00,
2013-09-01 08:47:00,69.0,67.8,29.84,SW,216,4.0,9.0,96,0.00,,,0.00,Wunderground v.1.15,2013-09-01 13:47:00,
2013-09-01 08:52:00,69.0,68.1,29.84,SSW,196,2.0,8.0,97,0.00,,,0.00,Wunderground v.1.15,2013-09-01 13:52:00,
2013-09-01 08:57:00,68.7,67.5,29.84,SW,227,2.0,8.0,96,0.00,,,0.00,Wunderground v.1.15,2013-09-01 13:57:00,
2013-09-01 09:02:00,68.6,67.4,29.84,NNW,345,3.0,4.0,96,0.27,,,0.04,Wunderground v.1.15,2013-09-01 14:02:00,
2013-09-01 09:07:00,68.6,67.4,29.85,SW,220,2.0,8.0,96,0.34,,,0.07,Wunderground v.1.15,2013-09-01 14:07:00,
2013-09-01 09:12:00,68.6,67.7,29.85,East,97,5.0,7.0,97,1.18,,,0.12,Wunderground v.1.15,2013-09-01 14:12:00,
2013-09-01 09:17:00,68.6,67.7,29.85,SE,124,7.0,7.0,97,0.11,,,0.12,Wunderground v.1.15,2013-09-01 14:17:00,
2013-09-01 09:22:00,68.8,67.9,29.85,SE,140,3.0,5.0,97,0.06,,,0.12,Wunderground v.1.15,2013-09-01 14:22:00,
2013-09-01 09:27:00,68.8,67.9,29.85,SE,135,3.0,5.0,97,0.04,,,0.12,Wunderground v.1.15,2013-09-01 14:27:00,
2013-09-01 09:32:00,68.7,67.8,29.85,ESE,115,5.0,5.0,97,0.00,,,0.12,Wunderground v.1.15,2013-09-01 14:32:00,
2013-09-01 09:37:00,68.6,67.7,29.84,SE,136,3.0,6.0,97,0.00,,,0.12,Wunderground v.1.15,2013-09-01 14:37:00,
2013-09-01 09:42:00,68.6,67.7,29.84,SE,134,3.0,6.0,97,0.00,,,0.12,Wunderground v.1.15,2013-09-01 14:42:00,
2013-09-01 09:47:00,68.8,67.9,29.84,SSE,157,4.0,6.0,97,0.00,,,0.12,Wunderground v.1.15,2013-09-01 14:47:00,
2013-09-01 09:52:00,69.0,68.1,29.84,South,175,3.0,7.0,97,0.00,,,0.12,Wunderground v.1.15,2013-09-01 14:52:00,
2013-09-01 09:57:00,69.2,68.3,29.83,South,189,4.0,7.0,97,0.00,,,0.12,Wunderground v.1.15,2013-09-01 14:57:00,
2013-09-01 10:02:00,69.8,68.9,29.84,WNW,300,2.0,5.0,97,0.00,,,0.12,Wunderground v.1.15,2013-09-01 15:02:00,
2013-09-01 10:07:00,70.3,69.4,29.83,SSW,207,0.0,5.0,97,0.00,,,0.12,Wunderground v.1.15,2013-09-01 15:07:00,
2013-09-01 10:12:00,70.7,69.8,29.83,South,174,5.0,9.0,97,0.00,,,0.12,Wunderground v.1.15,2013-09-01 15:12:00,
2013-09-01 10:17:00,70.8,69.9,29.83,SSW,200,0.0,9.0,97,0.00,,,0.12,Wunderground v.1.15,2013-09-01 15:17:00,
2013-09-01 10:22:00,71.3,70.4,29.83,SW,232,3.0,9.0,97,0.00,,,0.12,Wunderground v.1.15,2013-09-01 15:22:00,
2013-09-01 10:27:00,71.9,70.7,29.83,WSW,244,4.0,9.0,96,0.00,,,0.12,Wunderground v.1.15,2013-09-01 15:27:00,
2013-09-01 10:32:00,72.4,70.9,29.83,WSW,257,10.0,10.0,95,0.00,,,0.12,Wunderground v.1.15,2013-09-01 15:32:00,
2013-09-01 10:37:00,72.4,70.9,29.83,WSW,239,2.0,10.0,95,0.00,,,0.12,Wunderground v.1.15,2013-09-01 15:37:00,
2013-09-01 10:42:00,72.3,70.8,29.83,South,190,2.0,8.0,95,0.00,,,0.12,Wunderground v.1.15,2013-09-01 15:42:00,
2013-09-01 10:47:00,72.4,70.9,29.82,South,172,2.0,8.0,95,0.00,,,0.12,Wunderground v.1.15,2013-09-01 15:47:00,
2013-09-01 10:52:00,72.5,70.7,29.82,SW,215,0.0,7.0,94,0.00,,,0.12,Wunderground v.1.15,2013-09-01 15:52:00,
2013-09-01 10:57:00,72.6,70.5,29.82,SW,217,3.0,8.0,93,0.00,,,0.12,Wunderground v.1.15,2013-09-01 15:57:00,
2013-09-01 11:02:00,73.0,70.5,29.82,SSW,212,5.0,9.0,92,0.00,,,0.12,Wunderground v.1.15,2013-09-01 16:02:00,
2013-09-01 11:07:00,73.4,70.6,29.81,SSW,196,3.0,10.0,91,0.00,,,0.12,Wunderground v.1.15,2013-09-01 16:07:00,
2013-09-01 11:12:00,73.8,71.0,29.81,WSW,252,1.0,7.0,91,0.00,,,0.12,Wunderground v.1.15,2013-09-01 16:12:00,
2013-09-01 11:17:00,74.2,71.1,29.81,SE,137,4.0,7.0,90,0.00,,,0.12,Wunderground v.1.15,2013-09-01 16:17:00,
2013-09-01 11:23:00,74.9,71.4,29.80,SE,129,4.0,7.0,89,0.00,,,0.12,Wunderground v.1.15,2013-09-01 16:23:00,
2013-09-01 11:28:00,75.6,72.1,29.80,SSE,154,0.0,7.0,89,0.00,,,0.12,Wunderground v.1.15,2013-09-01 16:28:00,
2013-09-01 11:33:00,76.1,71.6,29.80,SSW,209,0.0,5.0,86,0.00,,,0.12,Wunderground v.1.15,2013-09-01 16:33:00,
2013-09-01 11:38:00,76.4,71.2,29.80,SSW,204,0.0,6.0,84,0.00,,,0.12,Wunderground v.1.15,2013-09-01 16:38:00,
2013-09-01 11:43:00,76.7,70.8,29.81,SW,234,7.0,7.0,82,0.00,,,0.12,Wunderground v.1.15,2013-09-01 16:43:00,
2013-09-01 11:48:00,76.3,71.5,29.81,NW,317,2.0,7.0,85,0.00,,,0.12,Wunderground v.1.15,2013-09-01 16:48:00,
2013-09-01 11:53:00,75.9,72.1,29.82,WSW,252,6.0,9.0,88,0.00,,,0.12,Wunderground v.1.15,2013-09-01 16:53:00,
2013-09-01 11:58:00,75.4,71.6,29.82,WSW,242,5.0,9.0,88,0.00,,,0.12,Wunderground v.1.15,2013-09-01 16:58:00,
2013-09-01 12:03:00,75.2,71.7,29.82,West,270,9.0,9.0,89,0.00,,,0.12,Wunderground v.1.15,2013-09-01 17:03:00,
2013-09-01 12:08:00,75.2,72.1,29.83,WNW,295,4.0,9.0,90,0.00,,,0.12,Wunderground v.1.15,2013-09-01 17:08:00,
2013-09-01 12:13:00,75.3,71.8,29.83,WSW,244,0.0,9.0,89,0.00,,,0.12,Wunderground v.1.15,2013-09-01 17:13:00,
2013-09-01 12:18:00,75.7,72.2,29.83,SW,233,3.0,9.0,89,0.00,,,0.12,Wunderground v.1.15,2013-09-01 17:18:00,
2013-09-01 12:23:00,76.5,72.0,29.82,SSW,209,4.0,9.0,86,0.00,,,0.12,Wunderground v.1.15,2013-09-01 17:23:00,
2013-09-01 12:29:00,77.1,71.5,29.82,SW,226,4.0,9.0,83,0.00,,,0.12,Wunderground v.1.15,2013-09-01 17:29:00,
2013-09-01 12:34:00,77.6,71.7,29.81,West,259,4.0,8.0,82,0.00,,,0.12,Wunderground v.1.15,2013-09-01 17:34:00,
2013-09-01 12:39:00,77.9,72.0,29.81,SW,225,4.0,8.0,82,0.00,,,0.12,Wunderground v.1.15,2013-09-01 17:39:00,
2013-09-01 12:44:00,78.0,71.7,29.80,SW,221,6.0,6.0,81,0.00,,,0.12,Wunderground v.1.15,2013-09-01 17:44:00,
2013-09-01 12:49:00,78.4,71.3,29.80,WSW,237,3.0,6.0,79,0.00,,,0.12,Wunderground v.1.15,2013-09-01 17:49:00,
2013-09-01 12:54:00,78.0,71.3,29.80,WSW,238,6.0,7.0,80,0.00,,,0.12,Wunderground v.1.15,2013-09-01 17:54:00,
2013-09-01 12:59:00,77.5,72.3,29.81,WNW,286,6.0,9.0,84,0.00,,,0.12,Wunderground v.1.15,2013-09-01 17:59:00,
2013-09-01 13:04:00,76.9,72.7,29.81,NW,306,5.0,9.0,87,0.00,,,0.12,Wunderground v.1.15,2013-09-01 18:04:00,
2013-09-01 13:09:00,76.3,72.5,29.81,WNW,289,9.0,10.0,88,0.00,,,0.12,Wunderground v.1.15,2013-09-01 18:09:00,
2013-09-01 13:14:00,75.9,72.1,29.81,WSW,237,4.0,11.0,88,0.00,,,0.12,Wunderground v.1.15,2013-09-01 18:14:00,
2013-09-01 13:19:00,75.7,72.2,29.81,NW,309,0.0,11.0,89,0.00,,,0.12,Wunderground v.1.15,2013-09-01 18:19:00,
2013-09-01 13:25:00,75.6,72.1,29.81,WSW,252,5.0,9.0,89,0.00,,,0.12,Wunderground v.1.15,2013-09-01 18:25:00,
2013-09-01 13:30:00,75.5,71.7,29.81,SW,236,5.0,5.0,88,0.00,,,0.12,Wunderground v.1.15,2013-09-01 18:30:00,
2013-09-01 13:35:00,75.7,72.6,29.81,WNW,284,5.0,9.0,90,0.00,,,0.12,Wunderground v.1.15,2013-09-01 18:35:00,
2013-09-01 13:40:00,75.8,72.3,29.81,West,277,6.0,7.0,89,0.00,,,0.12,Wunderground v.1.15,2013-09-01 18:40:00,
2013-09-01 13:45:00,75.6,72.1,29.81,NW,304,10.0,10.0,89,0.00,,,0.12,Wunderground v.1.15,2013-09-01 18:45:00,
2013-09-01 13:50:00,75.4,72.3,29.81,West,281,9.0,9.0,90,0.00,,,0.12,Wunderground v.1.15,2013-09-01 18:50:00,
2013-09-01 13:55:00,75.6,72.5,29.81,WNW,294,10.0,10.0,90,0.00,,,0.12,Wunderground v.1.15,2013-09-01 18:55:00,
2013-09-01 14:00:00,75.7,72.6,29.81,WNW,288,10.0,13.0,90,0.00,,,0.12,Wunderground v.1.15,2013-09-01 19:00:00,
2013-09-01 14:05:00,75.6,72.1,29.80,WNW,303,11.0,14.0,89,0.00,,,0.12,Wunderground v.1.15,2013-09-01 19:05:00,
2013-09-01 14:10:00,75.8,72.0,29.80,WNW,292,12.0,12.0,88,0.00,,,0.12,Wunderground v.1.15,2013-09-01 19:10:00,
2013-09-01 14:15:00,76.5,73.0,29.80,West,279,7.0,13.0,89,0.00,,,0.12,Wunderground v.1.15,2013-09-01 19:15:00,
2013-09-01 14:20:00,76.8,70.9,29.80,NW,319,12.0,15.0,82,0.00,,,0.12,Wunderground v.1.15,2013-09-01 19:20:00,
2013-09-01 14:25:00,77.2,71.6,29.80,NNW,331,8.0,15.0,83,0.00,,,0.12,Wunderground v.1.15,2013-09-01 19:25:00,
2013-09-01 14:30:00,77.6,70.9,29.80,NW,322,14.0,15.0,80,0.00,,,0.12,Wunderground v.1.15,2013-09-01 19:30:00,
2013-09-01 14:36:00,78.0,71.3,29.79,West,267,12.0,16.0,80,0.00,,,0.12,Wunderground v.1.15,2013-09-01 19:36:00,
2013-09-01 14:41:00,78.2,70.0,29.79,West,274,14.0,23.0,76,0.00,,,0.12,Wunderground v.1.15,2013-09-01 19:41:00,
2013-09-01 14:46:00,77.9,69.3,29.79,West,275,10.0,23.0,75,0.00,,,0.12,Wunderground v.1.15,2013-09-01 19:46:00,
2013-09-01 14:51:00,77.8,70.8,29.79,NW,306,10.0,13.0,79,0.00,,,0.12,Wunderground v.1.15,2013-09-01 19:51:00,
2013-09-01 14:56:00,78.1,71.1,29.79,West,281,11.0,15.0,79,0.00,,,0.12,Wunderground v.1.15,2013-09-01 19:56:00,
2013-09-01 15:01:00,77.9,70.1,29.79,NW,308,10.0,14.0,77,0.00,,,0.12,Wunderground v.1.15,2013-09-01 20:01:00,
2013-09-01 15:06:00,77.3,69.5,29.79,WNW,299,14.0,17.0,77,0.00,,,0.12,Wunderground v.1.15,2013-09-01 20:06:00,
2013-09-01 15:11:00,77.1,68.9,29.79,NW,311,13.0,15.0,76,0.00,,,0.12,Wunderground v.1.15,2013-09-01 20:11:00,
2013-09-01 15:16:00,76.9,68.8,29.79,WNW,302,11.0,16.0,76,0.00,,,0.12,Wunderground v.1.15,2013-09-01 20:16:00,
2013-09-01 15:21:00,77.0,69.2,29.79,NW,308,13.0,15.0,77,0.00,,,0.12,Wunderground v.1.15,2013-09-01 20:21:00,
2013-09-01 15:26:00,77.2,68.3,29.78,NW,307,13.0,18.0,74,0.00,,,0.12,Wunderground v.1.15,2013-09-01 20:26:00,
2013-09-01 15:31:00,77.6,69.0,29.79,NW,320,13.0,13.0,75,0.00,,,0.12,Wunderground v.1.15,2013-09-01 20:31:00,
2013-09-01 15:36:00,77.8,68.8,29.79,NW,319,14.0,17.0,74,0.00,,,0.12,Wunderground v.1.15,2013-09-01 20:36:00,
2013-09-01 15:41:00,77.9,69.3,29.79,NW,306,18.0,18.0,75,0.00,,,0.12,Wunderground v.1.15,2013-09-01 20:41:00,
2013-09-01 15:46:00,78.2,68.8,29.79,NW,307,14.0,18.0,73,0.00,,,0.12,Wunderground v.1.15,2013-09-01 20:46:00,
2013-09-01 15:51:00,78.5,69.5,29.79,WNW,288,6.0,14.0,74,0.00,,,0.12,Wunderground v.1.15,2013-09-01 20:51:00,
2013-09-01 15:56:00,78.3,68.9,29.79,NW,321,16.0,19.0,73,0.00,,,0.12,Wunderground v.1.15,2013-09-01 20:56:00,
2013-09-01 16:02:00,77.6,69.4,29.79,NW,316,11.0,15.0,76,0.00,,,0.12,Wunderground v.1.15,2013-09-01 21:02:00,
2013-09-01 16:07:00,77.4,68.1,29.79,NW,315,8.0,17.0,73,0.00,,,0.12,Wunderground v.1.15,2013-09-01 21:07:00,
2013-09-01 16:12:00,77.0,67.3,29.80,NW,319,6.0,12.0,72,0.00,,,0.12,Wunderground v.1.15,2013-09-01 21:12:00,
2013-09-01 16:17:00,76.7,68.2,29.80,NW,307,12.0,14.0,75,0.00,,,0.12,Wunderground v.1.15,2013-09-01 21:17:00,
2013-09-01 16:22:00,76.2,67.7,29.80,NW,318,12.0,15.0,75,0.00,,,0.12,Wunderground v.1.15,2013-09-01 21:22:00,
2013-09-01 16:27:00,75.8,67.7,29.80,NW,305,10.0,16.0,76,0.00,,,0.12,Wunderground v.1.15,2013-09-01 21:27:00,
2013-09-01 16:32:00,75.7,68.0,29.80,WNW,302,8.0,11.0,77,0.00,,,0.12,Wunderground v.1.15,2013-09-01 21:32:00,
2013-09-01 16:37:00,75.7,68.0,29.80,NW,304,6.0,11.0,77,0.00,,,0.12,Wunderground v.1.15,2013-09-01 21:37:00,
2013-09-01 16:42:00,76.2,68.1,29.80,NNW,332,8.0,10.0,76,0.00,,,0.12,Wunderground v.1.15,2013-09-01 21:42:00,
2013-09-01 16:47:00,76.6,69.2,29.80,NNW,328,8.0,10.0,78,0.00,,,0.12,Wunderground v.1.15,2013-09-01 21:47:00,
2013-09-01 16:52:00,77.1,69.3,29.80,WNW,301,7.0,10.0,77,0.00,,,0.12,Wunderground v.1.15,2013-09-01 21:52:00,
2013-09-01 16:57:00,77.9,70.5,29.80,NW,304,5.0,10.0,78,0.00,,,0.12,Wunderground v.1.15,2013-09-01 21:57:00,
2013-09-01 17:02:00,78.5,69.5,29.80,WNW,302,4.0,9.0,74,0.00,,,0.12,Wunderground v.1.15,2013-09-01 22:02:00,
2013-09-01 17:07:00,78.8,70.2,29.80,WNW,294,7.0,9.0,75,0.00,,,0.12,Wunderground v.1.15,2013-09-01 22:07:00,
2013-09-01 17:12:00,78.9,70.3,29.80,WNW,301,6.0,8.0,75,0.00,,,0.12,Wunderground v.1.15,2013-09-01 22:12:00,
2013-09-01 17:17:00,78.9,69.5,29.80,NNW,335,7.0,10.0,73,0.00,,,0.12,Wunderground v.1.15,2013-09-01 22:17:00,
2013-09-01 17:22:00,78.8,69.4,29.80,NNW,333,8.0,9.0,73,0.00,,,0.12,Wunderground v.1.15,2013-09-01 22:22:00,
2013-09-01 17:27:00,78.4,68.2,29.80,NW,305,5.0,11.0,71,0.00,,,0.12,Wunderground v.1.15,2013-09-01 22:27:00,
2013-09-01 17:32:00,77.8,68.0,29.80,NW,304,10.0,10.0,72,0.00,,,0.12,Wunderground v.1.15,2013-09-01 22:32:00,
2013-09-01 17:37:00,77.7,69.1,29.80,WNW,299,5.0,10.0,75,0.00,,,0.12,Wunderground v.1.15,2013-09-01 22:37:00,
2013-09-01 17:42:00,77.8,69.6,29.80,NW,323,8.0,9.0,76,0.00,,,0.12,Wunderground v.1.15,2013-09-01 22:42:00,
2013-09-01 17:47:00,77.9,70.1,29.80,NW,326,8.0,9.0,77,0.00,,,0.12,Wunderground v.1.15,2013-09-01 22:47:00,
2013-09-01 17:52:00,77.8,70.0,29.80,WNW,300,1.0,8.0,77,0.00,,,0.12,Wunderground v.1.15,2013-09-01 22:52:00,
2013-09-01 17:57:00,77.8,70.0,29.80,NW,319,6.0,8.0,77,0.00,,,0.12,Wunderground v.1.15,2013-09-01 22:57:00,
2013-09-01 18:02:00,77.7,70.3,29.80,NW,315,4.0,7.0,78,0.00,,,0.12,Wunderground v.1.15,2013-09-01 23:02:00,
2013-09-01 18:07:00,77.9,70.1,29.80,NW,322,5.0,7.0,77,0.00,,,0.12,Wunderground v.1.15,2013-09-01 23:07:00,
2013-09-01 18:12:00,77.8,69.6,29.79,NW,321,3.0,5.0,76,0.00,,,0.12,Wunderground v.1.15,2013-09-01 23:12:00,
2013-09-01 18:17:00,77.2,69.4,29.79,NW,306,2.0,5.0,77,0.00,,,0.12,Wunderground v.1.15,2013-09-01 23:17:00,
2013-09-01 18:22:00,76.4,68.7,29.79,NW,304,2.0,5.0,77,0.00,,,0.12,Wunderground v.1.15,2013-09-01 23:22:00,
2013-09-01 18:27:00,75.3,68.0,29.79,NW,304,0.0,5.0,78,0.00,,,0.12,Wunderground v.1.15,2013-09-01 23:27:00,
2013-09-01 18:32:00,74.9,67.6,29.79,NW,304,0.0,2.0,78,0.00,,,0.12,Wunderground v.1.15,2013-09-01 23:32:00,
2013-09-01 18:37:00,74.7,68.8,29.79,NW,304,0.0,2.0,82,0.00,,,0.12,Wunderground v.1.15,2013-09-01 23:37:00,
2013-09-01 18:42:00,74.7,68.8,29.79,NW,304,0.0,2.0,82,0.00,,,0.12,Wunderground v.1.15,2013-09-01 23:42:00,
2013-09-01 18:47:00,74.5,67.2,29.80,West,272,4.0,5.0,78,0.00,,,0.12,Wunderground v.1.15,2013-09-01 23:47:00,
2013-09-01 18:52:00,74.4,67.1,29.80,WSW,248,4.0,6.0,78,0.00,,,0.12,Wunderground v.1.15,2013-09-01 23:52:00,
2013-09-01 18:58:00,74.1,67.2,29.80,WSW,238,2.0,6.0,79,0.00,,,0.12,Wunderground v.1.15,2013-09-01 23:58:00,
2013-09-01 19:03:00,73.9,67.0,29.80,SSW,207,2.0,3.0,79,0.00,,,0.12,Wunderground v.1.15,2013-09-02 00:03:00,
2013-09-01 19:08:00,73.7,66.8,29.80,SW,229,3.0,5.0,79,0.00,,,0.12,Wunderground v.1.15,2013-09-02 00:08:00,
2013-09-01 19:13:00,73.8,66.5,29.80,SW,228,4.0,7.0,78,0.00,,,0.12,Wunderground v.1.15,2013-09-02 00:13:00,
2013-09-01 19:18:00,73.9,66.6,29.80,SW,227,6.0,7.0,78,0.00,,,0.12,Wunderground v.1.15,2013-09-02 00:18:00,
2013-09-01 19:23:00,74.0,66.7,29.80,WSW,246,5.0,6.0,78,0.00,,,0.12,Wunderground v.1.15,2013-09-02 00:23:00,
2013-09-01 19:28:00,73.9,67.0,29.80,WSW,244,3.0,6.0,79,0.00,,,0.12,Wunderground v.1.15,2013-09-02 00:28:00,
2013-09-01 19:33:00,73.7,66.8,29.80,WSW,238,0.0,5.0,79,0.00,,,0.12,Wunderground v.1.15,2013-09-02 00:33:00,
2013-09-01 19:38:00,73.5,66.9,29.80,SSE,153,2.0,5.0,80,0.00,,,0.12,Wunderground v.1.15,2013-09-02 00:38:00,
2013-09-01 19:43:00,73.4,66.9,29.80,SW,219,2.0,3.0,80,0.00,,,0.12,Wunderground v.1.15,2013-09-02 00:43:00,
2013-09-01 19:48:00,73.3,66.8,29.80,SSW,207,1.0,3.0,80,0.00,,,0.12,Wunderground v.1.15,2013-09-02 00:48:00,
2013-09-01 19:53:00,73.3,67.1,29.80,SSW,207,0.0,2.0,81,0.00,,,0.12,Wunderground v.1.15,2013-09-02 00:53:00,
2013-09-01 19:58:00,73.1,66.9,29.80,SSW,205,2.0,3.0,81,0.00,,,0.12,Wunderground v.1.15,2013-09-02 00:58:00,
2013-09-01 20:03:00,72.9,66.7,29.80,South,177,3.0,3.0,81,0.00,,,0.12,Wunderground v.1.15,2013-09-02 01:03:00,
2013-09-01 20:08:00,73.1,66.6,29.80,WSW,247,3.0,4.0,80,0.00,,,0.12,Wunderground v.1.15,2013-09-02 01:08:00,
2013-09-01 20:13:00,73.5,66.6,29.81,West,272,4.0,5.0,79,0.00,,,0.12,Wunderground v.1.15,2013-09-02 01:13:00,
2013-09-01 20:18:00,73.5,66.9,29.81,West,272,3.0,5.0,80,0.00,,,0.12,Wunderground v.1.15,2013-09-02 01:18:00,
2013-09-01 20:23:00,73.4,67.2,29.82,West,272,2.0,4.0,81,0.00,,,0.12,Wunderground v.1.15,2013-09-02 01:23:00,
2013-09-01 20:28:00,73.3,67.1,29.82,West,271,2.0,4.0,81,0.00,,,0.12,Wunderground v.1.15,2013-09-02 01:28:00,
2013-09-01 20:33:00,73.1,66.9,29.82,West,271,1.0,3.0,81,0.00,,,0.12,Wunderground v.1.15,2013-09-02 01:33:00,
2013-09-01 20:38:00,73.2,66.7,29.83,WSW,243,5.0,5.0,80,0.00,,,0.12,Wunderground v.1.15,2013-09-02 01:38:00,
2013-09-01 20:43:00,73.6,67.0,29.83,WSW,242,4.0,6.0,80,0.00,,,0.12,Wunderground v.1.15,2013-09-02 01:43:00,
2013-09-01 20:48:00,73.7,67.1,29.83,WSW,242,4.0,6.0,80,0.00,,,0.12,Wunderground v.1.15,2013-09-02 01:48:00,
2013-09-01 20:53:00,73.4,66.9,29.83,WSW,242,4.0,5.0,80,0.00,,,0.12,Wunderground v.1.15,2013-09-02 01:53:00,
2013-09-01 20:59:00,73.3,67.1,29.84,WSW,237,7.0,7.0,81,0.00,,,0.12,Wunderground v.1.15,2013-09-02 01:59:00,
2013-09-01 21:04:00,73.0,67.2,29.84,WSW,241,7.0,7.0,82,0.00,,,0.12,Wunderground v.1.15,2013-09-02 02:04:00,
2013-09-01 21:09:00,72.8,67.0,29.84,WSW,237,7.0,7.0,82,0.00,,,0.12,Wunderground v.1.15,2013-09-02 02:09:00,
2013-09-01 21:14:00,72.5,67.0,29.84,SW,234,5.0,7.0,83,0.00,,,0.12,Wunderground v.1.15,2013-09-02 02:14:00,
2013-09-01 21:19:00,72.4,66.9,29.84,SW,228,6.0,7.0,83,0.00,,,0.12,Wunderground v.1.15,2013-09-02 02:19:00,
2013-09-01 21:24:00,72.4,66.9,29.83,SW,229,5.0,5.0,83,0.00,,,0.12,Wunderground v.1.15,2013-09-02 02:24:00,
2013-09-01 21:29:00,72.5,67.4,29.83,SW,229,2.0,7.0,84,0.00,,,0.12,Wunderground v.1.15,2013-09-02 02:29:00,
2013-09-01 21:34:00,72.5,67.4,29.84,South,178,3.0,5.0,84,0.00,,,0.12,Wunderground v.1.15,2013-09-02 02:34:00,
2013-09-01 21:39:00,72.4,66.9,29.83,South,189,1.0,5.0,83,0.00,,,0.12,Wunderground v.1.15,2013-09-02 02:39:00,
2013-09-01 21:44:00,72.4,66.9,29.84,SW,221,5.0,5.0,83,0.00,,,0.12,Wunderground v.1.15,2013-09-02 02:44:00,
2013-09-01 21:49:00,72.4,66.6,29.84,SW,224,3.0,5.0,82,0.00,,,0.12,Wunderground v.1.15,2013-09-02 02:49:00,
2013-09-01 21:54:00,72.6,66.8,29.84,SSW,198,3.0,5.0,82,0.00,,,0.12,Wunderground v.1.15,2013-09-02 02:54:00,
2013-09-01 21:59:00,72.9,66.0,29.83,SW,220,5.0,6.0,79,0.00,,,0.12,Wunderground v.1.15,2013-09-02 02:59:00,
2013-09-01 22:04:00,73.4,66.5,29.83,SW,225,7.0,7.0,79,0.00,,,0.12,Wunderground v.1.15,2013-09-02 03:04:00,
2013-09-01 22:09:00,73.7,66.0,29.83,SW,227,5.0,7.0,77,0.00,,,0.12,Wunderground v.1.15,2013-09-02 03:09:00,
2013-09-01 22:14:00,73.7,66.0,29.83,SW,232,5.0,6.0,77,0.00,,,0.12,Wunderground v.1.15,2013-09-02 03:14:00,
2013-09-01 22:20:00,73.6,65.2,29.83,SW,221,1.0,3.0,75,0.00,,,0.12,Wunderground v.1.15,2013-09-02 03:20:00,
2013-09-01 22:25:00,73.5,65.5,29.83,South,188,2.0,5.0,76,0.00,,,0.12,Wunderground v.1.15,2013-09-02 03:25:00,
2013-09-01 22:30:00,73.4,66.1,29.83,SSE,165,3.0,3.0,78,0.00,,,0.12,Wunderground v.1.15,2013-09-02 03:30:00,
2013-09-01 22:35:00,73.2,66.7,29.83,SE,141,3.0,4.0,80,0.00,,,0.12,Wunderground v.1.15,2013-09-02 03:35:00,
2013-09-01 22:40:00,72.9,66.4,29.83,SE,144,2.0,2.0,80,0.00,,,0.12,Wunderground v.1.15,2013-09-02 03:40:00,
2013-09-01 22:45:00,72.6,66.4,29.83,SE,141,3.0,4.0,81,0.00,,,0.12,Wunderground v.1.15,2013-09-02 03:45:00,
2013-09-01 22:50:00,72.3,65.4,29.83,SE,138,1.0,2.0,79,0.00,,,0.12,Wunderground v.1.15,2013-09-02 03:50:00,
2013-09-01 22:55:00,72.3,64.3,29.83,South,190,2.0,4.0,76,0.00,,,0.12,Wunderground v.1.15,2013-09-02 03:55:00,
2013-09-01 23:00:00,72.7,64.3,29.83,SSW,200,1.0,3.0,75,0.00,,,0.12,Wunderground v.1.15,2013-09-02 04:00:00,
2013-09-01 23:01:00,72.7,64.3,29.83,SSW,200,2.0,3.0,75,0.00,,,0.12,Wunderground v.1.15,2013-09-02 04:01:00,
2013-09-01 23:02:00,72.8,64.0,29.83,SSW,209,3.0,3.0,74,0.00,,,0.12,Wunderground v.1.15,2013-09-02 04:02:00,
2013-09-01 23:07:00,73.2,64.0,29.83,SW,227,3.0,5.0,73,0.00,,,0.12,Wunderground v.1.15,2013-09-02 04:07:00,
2013-09-01 23:12:00,73.5,65.1,29.83,SW,214,3.0,5.0,75,0.00,,,0.12,Wunderground v.1.15,2013-09-02 04:12:00,
2013-09-01 23:17:00,73.5,65.1,29.83,SW,227,3.0,5.0,75,0.00,,,0.12,Wunderground v.1.15,2013-09-02 04:17:00,
2013-09-01 23:22:00,73.1,66.2,29.83,SW,231,3.0,5.0,79,0.00,,,0.12,Wunderground v.1.15,2013-09-02 04:22:00,
2013-09-01 23:27:00,72.3,66.1,29.84,WSW,248,8.0,8.0,81,0.00,,,0.12,Wunderground v.1.15,2013-09-02 04:27:00,
2013-09-01 23:32:00,71.6,66.8,29.84,SW,232,3.0,10.0,85,0.00,,,0.12,Wunderground v.1.15,2013-09-02 04:32:00,
2013-09-01 23:37:00,71.2,67.1,29.83,SSW,204,5.0,10.0,87,0.00,,,0.12,Wunderground v.1.15,2013-09-02 04:37:00,
2013-09-01 23:42:00,70.8,67.4,29.83,SW,236,3.0,7.0,89,0.00,,,0.12,Wunderground v.1.15,2013-09-02 04:42:00,
2013-09-01 23:47:00,70.5,67.1,29.84,SW,227,6.0,10.0,89,0.00,,,0.12,Wunderground v.1.15,2013-09-02 04:47:00,
2013-09-01 23:52:00,70.8,67.1,29.84,SW,227,2.0,9.0,88,0.00,,,0.12,Wunderground v.1.15,2013-09-02 04:52:00,
2013-09-01 23:57:00,70.9,67.2,29.84,SSW,213,4.0,9.0,88,0.00,,,0.12,Wunderground v.1.15,2013-09-02 04:57:00,